Location: Katowice
(50.2611°N, 19.0242°E)
Time: 04:26:33
(UTC+02:00)

A-11 Canister half - Pass Details

Date: 24 July 2019
Orbit: 1526 x 1683 km, 47.3° (Epoch: 21 August)

Event Time Altitude Azimuth Distance (km) Brightness Sun altitude
Rises 03:38:43 0° 289° (WNW) 4,826 11.4 -10.6°
Reaches altitude 10° 03:42:31 10° 277° (W) 3,812 10.8 -10.2°
Maximum altitude 03:49:53 26° 227° (SW) 2,725 9.7 -9.4°
Drops below altitude 10° 03:57:06 10° 176° (S) 3,714 10.6 -8.6°
Sets 04:00:46 0° 164° (SSE) 4,679 11.2 -8.2°
